Skip Navigation Links weather.gov 
NOAA logo-Select to go to the NOAA homepage NDBC Title GraphicClick to go to NDBC home page   Select to go to the NWS homepage
Home About Us Contact Us
 
 
    
    Station List

 Data Access
    Mobile Access
    Classic Maps
         Recent
         DART®
    Obs Search
    Ship Obs Report
    BuoyCAMs
    TAO
    DODS
    OceanSITES
    HF Radar
    OSMC
    Dial-A-Buoy
    RSS Feeds Image indicating link to RSS feed access page
    Web Widget
    Email Access
    Web Data Guide
    Maintenance Schedule
    Station Status Report

 Program Info
    TAO
    DART®
    IOOS®

 Publications
    NDBC PEA
    NDBC FONSI
    NDBC DQC Handbook

 FAQ
 Visitor Information
 
USA.gov is the U.S. government's official web portal to all federal, state and local government web resources and services.

Station NKLA2 - Nikolski White Alice Image indicating link to RSS feed of recent meteorological observations for station NKLA2

Owned and maintained by Marine Exchange of Alaska
Fixed Structure Weather Station
52.972 N 168.855 W (52°58'20" N 168°51'19" W)

Search And Rescue (SAR) Data

Meteorological Observations from Nearby Stations and Ships Image indicating link to RSS feed of recent meteorological observations near station NKLA2

Large icon indicates selected station.
yellow diamond Stations with recent data
red diamond Stations with no data in last 8 hours
     (24 hours for tsunami stations)


Conditions at NKLA2 as of
(6:52 am AKST)
1552 GMT on 12/15/2018:
     

Click on the graph icon in the table below to see a time series plot of the last five days of that observation.

5-day plot - Wind Direction Wind Direction (WDIR): NNW ( 340 deg true )
5-day plot - Wind Speed Wind Speed (WSPD): 31.1 kts
5-day plot - Wind Gust Wind Gust (GST): 42.9 kts
5-day plot - Atmospheric Pressure Atmospheric Pressure (PRES): 29.41 in
5-day plot - Air Temperature Air Temperature (ATMP): 27.0 °F
5-day plot - Dew Point Dew Point (DEWP): 19.0 °F
5-day plot - Wind Chill Wind Chill (CHILL): 9.5 °F
5-day plot - Wind Speed at 10 Meters Wind Speed at 10 meters (WSPD10M): 35.0 kts
5-day plot - Wind Speed at 10 Meters Wind Speed at 20 meters (WSPD20M): 38.9 kts
5-day plot - Wind Speed, Wind Gust and Atmospheric Pressure Combined plot of Wind Speed, Gust, and Air Pressure
Previous observations
5-day plot - Wind Direction 5-day plot - Wind Speed 5-day plot - Wind Gust 5-day plot - Wave Height 5-day plot - Dominant Wave Period 5-day plot - Average Period 5-day plot - Mean Wave Direction 5-day plot - Atmospheric Pressure 5-day plot - Pressure Tendency 5-day plot - Air Temperature 5-day plot - Water Temperature 5-day plot - Dew Point 5-day plot - Salinity 5-day plot - Visibility 5-day plot - Tide (above MLLW)
MM DD TIME
(AKST)
WDIR WSPD
kts
GST
kts
WVHT
ft
DPD
sec
APD
sec
MWD PRES
in
PTDY
in
ATMP
°F
WTMP
°F
DEWP
°F
SAL
psu
VIS
nmi
TIDE
ft
1215 6:42 amNNW 34.0 46.0----29.39- 26.8- 19.0---
1215 6:32 amNNW 34.0 49.9----29.39- 26.6- 19.4---
1215 6:22 amNNW 33.0 48.0----29.39- 26.2- 20.5---
1215 6:12 amNNW 35.0 54.0----29.38- 26.6- 21.4---
1215 6:02 amNNW 34.0 49.0----29.38- 27.5- 20.7---
1215 5:52 amNNW 35.0 48.0----29.38- 27.3- 20.5---
1215 5:42 amNNW 33.0 49.9----29.38- 27.0- 20.7---
1215 5:32 amNNW 35.0 46.0----29.38- 26.8- 20.5---
1215 5:22 amNNW 35.9 47.0----29.38- 27.1- 20.5---
1215 5:12 amNNW 38.1 49.9----29.37- 27.1- 21.9---
1215 5:02 amNNW 33.0 51.1----29.39- 27.0- 22.1---
1215 4:52 amNNW 32.1 46.0----29.39- 26.2- 21.9---
1215 4:42 amNNW 29.9 40.0----29.39- 25.9- 21.7---
1215 4:32 amNNW 35.0 52.1----29.38- 26.1- 21.2---
1215 4:22 amNNW 31.1 45.1----29.39- 27.7- 21.4---
1215 4:12 amNNW 33.0 47.0----29.39- 27.9- 21.6---
1215 4:02 am N 22.9 40.0----29.40- 28.0- 22.1---
1215 3:52 amNNW 29.9 51.1----29.39- 27.7- 21.2---
1215 3:42 amNNW 33.0 49.0----29.37- 27.5- 21.6---
1215 3:32 amNNW 34.0 49.9----29.36- 27.9- 22.5---
1215 3:22 amNNW 33.0 48.0----29.36- 28.2- 21.4---
1215 3:12 amNNW 29.9 46.0----29.36- 27.9- 21.4---
1215 3:02 amNNW 33.0 45.1----29.35- 27.1- 21.2---
1215 2:52 amNNW 35.0 49.9----29.35- 26.6- 22.3---
1215 2:42 amNNW 34.0 46.0----29.34- 26.6- 22.3---
1215 2:32 amNNW 32.1 49.0----29.34- 26.2- 21.7---
1215 2:22 am N 31.1 51.1----29.33- 27.0- 22.3---
1215 2:12 amNNW 34.0 49.0----29.33- 27.5- 21.7---
1215 2:02 am N 29.9 42.9----29.33- 28.4- 20.5---
1215 1:52 amNNW 35.0 48.0----29.31- 29.3- 18.7---
1215 1:42 amNNW 35.0 47.0----29.31- 29.1- 18.5---
1215 1:32 amNNW 29.9 45.1----29.31- 29.1- 18.3---
1215 1:22 amNNW 32.1 42.0----29.31- 29.1- 18.0---
1215 1:12 amNNW 35.0 49.9----29.30- 29.1- 17.6---
1215 1:02 amNNW 32.1 45.1----29.31- 29.1- 18.7---
121512:52 amNNW 32.1 45.1----29.30- 29.1- 18.7---
121512:42 amNNW 28.9 52.1----29.31- 28.9- 18.3---
121512:32 am N 25.1 38.1----29.31- 28.9- 18.7---
121512:22 am N 25.1 41.0----29.30- 29.3- 19.6---
121512:12 amNNW 32.1 52.1----29.28- 29.5- 19.0---
121512:02 am N 27.0 45.1----29.28- 29.5- 18.7---
121411:52 pm N 27.0 38.1----29.28- 29.3- 18.9---
121411:42 pm N 21.0 40.0----29.29- 29.1- 19.8---
121411:32 pm N 21.0 33.0----29.28- 28.9- 19.6---
121411:22 pm N 22.0 29.9----29.27- 28.9- 19.0---
121411:12 pm N 22.9 32.1----29.26- 28.9- 19.8---
121411:02 pm N 21.0 32.1----29.26- 28.8- 20.7---
121410:52 pm N 15.9 33.0----29.26- 28.0- 21.0---
121410:42 pm NE 15.0 25.1----29.26- 27.0- 21.9---
121410:32 pmNNE 15.0 21.0----29.25- 26.4- 22.5---
121410:22 pm NE 22.9 34.0----29.24- 26.1- 22.5---
121410:12 pm N 21.0 29.9----29.24- 26.4- 22.6---
121410:02 pmNNE 21.0 28.9----29.23- 27.3- 21.9---
1214 9:52 pmNNE 18.1 25.1----29.23- 27.9- 21.4---
1214 9:42 pm N 19.0 26.0----29.22- 28.0- 21.9---
1214 9:32 pm N 22.0 32.1----29.20- 27.7- 21.6---
1214 9:22 pm N 22.0 29.9----29.19- 27.0- 21.0---
1214 9:12 pmNNW 28.9 45.1----29.17- 28.4- 20.7---
1214 9:02 pm N 32.1 48.0----29.15- 28.8- 19.0---
1214 8:52 pmNNW 36.9 59.1----29.13- 28.6- 18.5---
1214 8:42 pm N 28.9 47.0----29.15- 28.6- 18.9---
1214 8:32 pmNNW 29.9 42.9----29.14- 28.8- 17.4---
1214 8:22 pm N 27.0 41.0----29.14- 28.4- 16.5---
1214 8:12 pm N 25.1 40.0----29.13- 28.0- 16.5---
1214 8:02 pm N 27.0 42.0----29.13- 27.9- 17.4---
1214 7:52 pm N 24.1 42.0----29.13- 28.0- 18.3---
1214 7:42 pm N 32.1 47.0----29.11- 28.4- 17.8---
1214 7:32 pmNNW 28.9 44.1----29.11- 27.7- 19.0---
1214 7:22 pm N 24.1 38.1----29.12- 26.8- 20.1---
1214 7:12 pm N 21.0 33.0----29.12- 26.4- 20.1---
1214 7:02 pm N 22.9 38.1----29.12- 25.9- 20.1---
1214 6:52 pm N 25.1 47.0----29.11- 25.7- 19.9---
1214 6:42 pmNNW 40.0 61.0----29.06- 25.7- 20.3---
1214 6:32 pmNNW 42.9 62.9----29.05- 26.6- 20.8---
1214 6:22 pmNNW 35.9 56.9----29.05- 27.5- 21.0---
1214 6:12 pm N 31.1 58.1----29.05- 28.4- 21.4---
1214 6:02 pm N 26.0 62.0----29.05- 28.4- 21.4---
1214 5:52 pm N 24.1 48.0----29.05- 28.6- 21.2---
1214 5:42 pm N 22.0 52.1----29.05- 28.8- 20.1---
1214 5:32 pm N 31.1 53.0----29.04- 28.8- 18.9---
1214 5:22 pm N 29.9 55.9----29.04- 28.9- 18.9---
1214 5:12 pm N 22.9 45.1----29.04- 28.9- 19.4---
1214 5:02 pm N 29.9 52.1----29.03- 28.9- 19.8---
1214 4:52 pmNNW 34.0 56.9----29.03- 28.8- 18.0---
1214 4:42 pm N 27.0 58.1----29.03- 28.8- 17.4---
1214 4:32 pmNNW 33.0 49.0----29.02- 28.9- 17.4---
1214 4:22 pmNNW 31.1 49.9----29.02- 28.6- 16.5---
1214 4:12 pmNNW 29.9 51.1----29.02- 28.6- 18.1---
1214 4:02 pmNNW 28.0 42.0----29.03- 27.3- 19.2---
1214 3:52 pmNNW 27.0 42.0----29.04- 25.2- 18.3---
1214 3:43 pmNNW 36.9 55.0----29.01- 24.8- 19.0---
1214 3:32 pmNNW 38.1 67.0----29.00- 27.0- 19.2---
1214 3:22 pmNNW 35.9 56.9----29.00- 27.9- 18.5---
1214 3:12 pmNNW 32.1 48.0----29.01- 27.5- 19.2---
1214 2:52 pmNNW 35.9 51.1----29.00- 26.6- 19.2---
1214 2:42 pmNNW 39.0 56.9----28.99- 26.2- 19.6---
1214 2:22 pmNNW 35.0 55.9----28.99- 26.2- 20.7---
1214 2:12 pmNNW 42.0 59.1----28.98- 26.1- 20.3---
1214 2:02 pmNNW 35.0 51.1----29.00- 26.4- 19.4---
1214 1:52 pm N 31.1 49.0----29.00- 26.2- 19.0---
1214 1:42 pm N 29.9 49.9----29.00- 26.4- 18.7---
1214 1:32 pmNNW 35.9 59.1----28.99- 26.6- 18.3---
1214 1:22 pmNNW 35.9 55.0----28.98- 26.4- 18.9---
1214 1:12 pmNNW 40.0 62.0----28.97- 26.1- 19.6---
1214 1:02 pmNNW 42.0 68.0----28.96- 26.1- 19.9---
121412:52 pmNNW 35.9 55.9----28.97- 27.3- 18.9---
121412:42 pmNNW 35.9 54.0----28.97- 27.9- 17.1---
121412:32 pmNNW 36.9 53.0----28.96- 28.0- 16.5---
121412:22 pmNNW 35.9 55.0----28.96- 28.0- 16.7---
121412:12 pmNNW 35.9 65.1----28.96- 27.9- 16.7---
121412:02 pmNNW 35.0 54.0----28.96- 27.5- 16.7---
121411:52 amNNW 35.0 69.0----28.95- 27.1- 17.2---
121411:42 amNNW 31.1 53.0----28.95- 26.8- 17.8---
121411:32 amNNW 38.1 58.1----28.95- 25.9- 16.2---
121411:22 amNNW 38.1 58.1----28.94- 25.5- 16.7---
121411:12 amNNW 41.0 67.0----28.92- 26.8- 17.6---
121411:02 amNNW 39.0 62.9----28.93- 26.6- 17.4---
121410:52 amNNW 36.9 61.0----28.92- 26.6- 17.8---
121410:42 amNNW 36.9 60.0----28.92- 26.8- 17.1---
121410:32 amNNW 41.0 58.1----28.90- 27.1- 17.1---
121410:22 amNNW 42.0 62.9----28.89- 27.3- 17.4---
121410:12 amNNW 39.0 63.9----28.89- 26.4- 17.8---
121410:02 amNNW 41.0 61.0----28.88- 26.2- 18.1---
1214 9:52 amNNW 42.0 69.0----28.87- 26.8- 17.8---
1214 9:42 amNNW 40.0 60.0----28.88- 26.8- 16.9---
1214 9:32 amNNW 40.0 61.0----28.87- 26.1- 17.2---
1214 9:22 amNNW 47.0 62.9----28.85- 26.2- 18.0---
1214 9:12 amNNW 49.9 69.9----28.83- 26.4- 18.9---
1214 9:02 amNNW 46.0 68.0----28.83- 26.8- 18.3---
1214 8:52 am N 36.9 65.1----28.85- 26.1- 18.7---
1214 8:42 am N 29.9 55.9----28.87- 25.5- 19.2---
1214 8:32 am N 35.9 54.0----28.84- 26.2- 18.7---
1214 8:22 amNNW 47.0 73.0----28.81- 26.2- 18.5---
1214 8:12 amNNW 52.1 73.0----28.78- 26.2- 19.6---
1214 8:02 amNNW 47.0 69.0----28.80- 26.2- 19.6---
1214 7:52 amNNW 49.0 69.0----28.79- 26.6- 19.9---
1214 7:42 amNNW 49.9 69.9----28.78- 27.0- 19.9---
1214 7:32 am N 42.9 63.9----28.79- 27.3- 18.0---
1214 7:22 amNNW 46.0 69.0----28.78- 27.3- 17.4---
1214 7:12 amNNW 45.1 63.9----28.78- 27.3- 18.1---
1214 7:02 amNNW 42.9 68.0----28.79- 27.1- 18.0---
1214 6:52 amNNW 41.0 67.0----28.79- 27.1- 18.3---

Description of Measurements

Links which are specific to this station are listed below:

Real Time Data in tabular form for the last forty-five days.

Historical Data & Climatic Summaries for quality controlled data for the current month, previous months, and previous years.